{"data":{"norad_id":60060,"intl_designator":"2024-113B","name":"STARLINK-11176 [DTC]","alt_names":[],"object_type":"PAYLOAD","status":"ACTIVE","operator":null,"country":"US","launch_date":"2024-06-19","launch_site_code":"AFWTR","launch_vehicle":null,"mission":null,"orbit_class":"UNKNOWN","rcs_meters":null,"size_class":null,"mass_kg":null,"dimensions":null,"purposes":["comms"],"wikipedia_slug":null,"has_3d_model":false,"image_url":null,"decayed_at":null,"tle_current":{"epoch":"2026-09-21T10:20:58.356672Z","epoch_age_seconds":97177,"freshness":"FRESH","line1":"1 60060U 24113B   26264.43123098  .00017305  00000+0  14787-3 0  9998","line2":"2 60060  53.1586 306.3491 0001762  56.2816 303.8370 15.69631103130308","mean_motion":15.69631103,"eccentricity":0.0001762,"inclination_deg":53.1586,"raan_deg":306.3491,"arg_perigee_deg":56.2816,"mean_anomaly_deg":303.837,"bstar":0.00014787,"rev_number":13030,"period_min":91.741301331744,"perigee_km":358.76528151487,"apogee_km":361.13978426626,"semimajor_km":6738.0895328906,"source":"CELESTRAK","updated_at":"2026-09-22T09:00:49.146170Z"}}}